P4MALC BIKF-EGPD

Flight info

Callsign P4MALC
Flight time 3h 34m
Altitude 25000
Route OSKUM DCT RATSU/N0210F250 DCT DEVBI DCT BAMRA DCT ATMEX DCT WCK DCT SMOKI
Aircraft BT36/L-BDFGLORY/S

Departure

Time 2026-04-29 15:33
Airport Keflavik International Airport (BIKF)

Arrival

Time 2026-04-29 19:08
Airport Aberdeen International Airport (EGPD)
Time Latitude Longitude Altitude Speed Heading
2026-04-29 15:03 63.97570 -22.59578 168 ft 0 kts 235°
2026-04-29 15:28 63.97557 -22.59618 168 ft 6 kts 217°
2026-04-29 15:28 63.97503 -22.59607 169 ft 11 kts 184°
2026-04-29 15:29 63.97403 -22.59653 166 ft 16 kts 200°
2026-04-29 15:29 63.97306 -22.59959 164 ft 16 kts 291°
2026-04-29 15:30 63.97364 -22.60268 165 ft 0 kts 292°
2026-04-29 15:32 63.97365 -22.60269 165 ft 1 kts 292°
2026-04-29 15:32 63.97381 -22.60358 165 ft 11 kts 291°
2026-04-29 15:33 63.97412 -22.60544 166 ft 6 kts 215°
2026-04-29 15:33 63.97330 -22.60545 164 ft 42 kts 181°
2026-04-29 15:33 63.96856 -22.60556 359 ft 85 kts 186°
2026-04-29 15:33 63.96229 -22.60525 891 ft 90 kts 184°
2026-04-29 15:34 63.95621 -22.60238 1518 ft 100 kts 160°
2026-04-29 15:34 63.95195 -22.58760 2061 ft 121 kts 126°
2026-04-29 15:34 63.94881 -22.56943 2612 ft 123 kts 129°
2026-04-29 15:34 63.94516 -22.55145 3163 ft 127 kts 128°
2026-04-29 15:35 63.94150 -22.53274 3692 ft 131 kts 127°
2026-04-29 15:35 63.93781 -22.51372 4222 ft 131 kts 127°
2026-04-29 15:35 63.93414 -22.49486 4757 ft 130 kts 128°
2026-04-29 15:35 63.93045 -22.47599 5272 ft 131 kts 128°
2026-04-29 15:36 63.92675 -22.45710 5798 ft 131 kts 128°
2026-04-29 15:36 63.92269 -22.43707 6002 ft 154 kts 127°
2026-04-29 15:36 63.91788 -22.41318 6026 ft 175 kts 124°
2026-04-29 15:36 63.91334 -22.38902 6548 ft 160 kts 125°
2026-04-29 15:37 63.90896 -22.36634 7052 ft 154 kts 127°
2026-04-29 15:37 63.90464 -22.34445 7558 ft 150 kts 129°
2026-04-29 15:37 63.90048 -22.32342 8058 ft 146 kts 130°
2026-04-29 15:37 63.89634 -22.30253 8585 ft 145 kts 131°
2026-04-29 15:38 63.89217 -22.28161 9106 ft 145 kts 133°
2026-04-29 15:38 63.88807 -22.26080 9646 ft 144 kts 134°
2026-04-29 15:38 63.88403 -22.24031 10142 ft 140 kts 135°
2026-04-29 15:38 63.88007 -22.22042 10635 ft 138 kts 136°
2026-04-29 15:39 63.87614 -22.20065 11131 ft 137 kts 137°
2026-04-29 15:39 63.87224 -22.18103 11641 ft 135 kts 139°
2026-04-29 15:39 63.86841 -22.16173 12153 ft 134 kts 140°
2026-04-29 15:39 63.86464 -22.14275 12673 ft 130 kts 141°
2026-04-29 15:40 63.86096 -22.12414 13213 ft 127 kts 143°
2026-04-29 15:40 63.85734 -22.10607 13741 ft 124 kts 144°
2026-04-29 15:40 63.85384 -22.08844 14216 ft 120 kts 146°
2026-04-29 15:40 63.85034 -22.07124 14632 ft 122 kts 147°
2026-04-29 15:41 63.84674 -22.05364 15027 ft 126 kts 146°
2026-04-29 15:41 63.84306 -22.03529 15455 ft 128 kts 146°
2026-04-29 15:41 63.83945 -22.01697 15929 ft 126 kts 147°
2026-04-29 15:41 63.83648 -21.99727 16403 ft 149 kts 128°
2026-04-29 15:42 63.83540 -21.97333 16870 ft 152 kts 126°
2026-04-29 15:42 63.83420 -21.94966 17322 ft 150 kts 128°
2026-04-29 15:42 63.83290 -21.92617 17747 ft 151 kts 128°
2026-04-29 15:42 63.83200 -21.91037 18013 ft 154 kts 129°
2026-04-29 15:43 63.83016 -21.87771 18493 ft 159 kts 128°
2026-04-29 15:43 63.82878 -21.85298 18831 ft 161 kts 128°
2026-04-29 15:43 63.82783 -21.83586 19067 ft 163 kts 128°
2026-04-29 15:43 63.82592 -21.80163 19532 ft 167 kts 128°
2026-04-29 15:44 63.82447 -21.77545 19889 ft 168 kts 128°
2026-04-29 15:44 63.82348 -21.75770 20124 ft 169 kts 129°
2026-04-29 15:44 63.82201 -21.73153 20483 ft 170 kts 129°
2026-04-29 15:44 63.82057 -21.70522 20895 ft 167 kts 130°
2026-04-29 15:45 63.81915 -21.67945 21305 ft 163 kts 132°
2026-04-29 15:45 63.81773 -21.65429 21720 ft 159 kts 134°
2026-04-29 15:45 63.81633 -21.62974 22139 ft 155 kts 135°
2026-04-29 15:45 63.81492 -21.60572 22524 ft 153 kts 137°
2026-04-29 15:46 63.81351 -21.58184 22902 ft 152 kts 138°
2026-04-29 15:46 63.81215 -21.55812 23289 ft 151 kts 139°
2026-04-29 15:46 63.81083 -21.53485 23646 ft 147 kts 140°
2026-04-29 15:46 63.80954 -21.51213 23966 ft 143 kts 142°
2026-04-29 15:47 63.80818 -21.48988 24229 ft 144 kts 143°
2026-04-29 15:47 63.80671 -21.46692 24470 ft 150 kts 141°
2026-04-29 15:47 63.80527 -21.44307 24719 ft 155 kts 139°
2026-04-29 15:47 63.80384 -21.41852 24944 ft 161 kts 139°
2026-04-29 15:48 63.80196 -21.39196 24965 ft 183 kts 135°
2026-04-29 15:48 63.80006 -21.36173 24970 ft 204 kts 129°
2026-04-29 15:48 63.79829 -21.32906 24968 ft 218 kts 127°
2026-04-29 15:48 63.79640 -21.29425 24967 ft 227 kts 126°
2026-04-29 15:49 63.79434 -21.25849 24964 ft 232 kts 126°
2026-04-29 15:49 63.79216 -21.22185 24969 ft 236 kts 126°
2026-04-29 15:49 63.78994 -21.18477 24971 ft 239 kts 125°
2026-04-29 15:49 63.78768 -21.14719 24967 ft 241 kts 125°
2026-04-29 15:50 63.78539 -21.10945 24965 ft 243 kts 125°
2026-04-29 15:50 63.78307 -21.07144 24967 ft 244 kts 125°
2026-04-29 15:50 63.78073 -21.03338 24963 ft 245 kts 125°
2026-04-29 15:50 63.77794 -20.99598 24961 ft 233 kts 132°
2026-04-29 15:51 63.77378 -20.96097 24963 ft 230 kts 134°
2026-04-29 15:51 63.76955 -20.92597 24960 ft 232 kts 134°
2026-04-29 15:51 63.76543 -20.89074 24963 ft 233 kts 133°
2026-04-29 15:51 63.76131 -20.85524 24957 ft 233 kts 133°
2026-04-29 15:52 63.75718 -20.81993 24955 ft 233 kts 134°
2026-04-29 15:52 63.75306 -20.78504 24963 ft 233 kts 134°
2026-04-29 15:52 63.74888 -20.74968 24960 ft 233 kts 134°
2026-04-29 15:52 63.74470 -20.71432 24962 ft 233 kts 134°
2026-04-29 15:53 63.74048 -20.67884 24961 ft 234 kts 134°
2026-04-29 15:53 63.73628 -20.64337 24964 ft 233 kts 134°
2026-04-29 15:53 63.73207 -20.60801 24962 ft 233 kts 134°
2026-04-29 15:53 63.72784 -20.57269 24963 ft 233 kts 134°
2026-04-29 15:54 63.72361 -20.53737 24964 ft 233 kts 134°
2026-04-29 15:54 63.71938 -20.50206 24968 ft 233 kts 134°
2026-04-29 15:54 63.71519 -20.46725 24965 ft 233 kts 134°
2026-04-29 15:54 63.71043 -20.43279 24969 ft 214 kts 144°
2026-04-29 15:55 63.70430 -20.40320 24967 ft 210 kts 146°
2026-04-29 15:55 63.69811 -20.37326 24971 ft 211 kts 146°
2026-04-29 15:55 63.69198 -20.34299 24966 ft 212 kts 145°
2026-04-29 15:55 63.68588 -20.31283 24968 ft 212 kts 146°
2026-04-29 15:56 63.67975 -20.28269 24969 ft 211 kts 146°
2026-04-29 15:56 63.67360 -20.25258 24968 ft 211 kts 146°
2026-04-29 15:56 63.66743 -20.22240 24967 ft 212 kts 146°
2026-04-29 15:56 63.66128 -20.19228 24968 ft 212 kts 146°
2026-04-29 15:57 63.65511 -20.16218 24968 ft 212 kts 146°
2026-04-29 15:57 63.64894 -20.13210 24972 ft 211 kts 146°
2026-04-29 15:57 63.64277 -20.10207 24971 ft 211 kts 146°
2026-04-29 15:57 63.63660 -20.07207 24968 ft 211 kts 146°
2026-04-29 15:58 63.63043 -20.04210 24969 ft 211 kts 146°
2026-04-29 15:58 63.62425 -20.01215 24974 ft 211 kts 146°
2026-04-29 15:58 63.61814 -19.98262 24973 ft 211 kts 146°
2026-04-29 15:58 63.61194 -19.95266 24969 ft 211 kts 146°
2026-04-29 15:59 63.60574 -19.92268 24976 ft 211 kts 146°
2026-04-29 15:59 63.59951 -19.89273 24972 ft 212 kts 146°
2026-04-29 15:59 63.59325 -19.86262 24975 ft 212 kts 146°
2026-04-29 15:59 63.58703 -19.83260 24976 ft 212 kts 146°
2026-04-29 16:00 63.58077 -19.80266 24973 ft 213 kts 146°
2026-04-29 16:00 63.57446 -19.77250 24978 ft 214 kts 146°
2026-04-29 16:00 63.56810 -19.74207 24981 ft 214 kts 146°
2026-04-29 16:00 63.56188 -19.71193 24990 ft 212 kts 146°
2026-04-29 16:01 63.55554 -19.68195 24987 ft 213 kts 146°
2026-04-29 16:01 63.54933 -19.65217 24993 ft 209 kts 147°
2026-04-29 16:01 63.54307 -19.62264 24991 ft 211 kts 146°
2026-04-29 16:01 63.53682 -19.59311 24985 ft 212 kts 146°
2026-04-29 16:02 63.53055 -19.56322 24986 ft 212 kts 146°
2026-04-29 16:02 63.52420 -19.53323 24999 ft 214 kts 146°
2026-04-29 16:02 63.51779 -19.50294 24992 ft 215 kts 146°
2026-04-29 16:02 63.51143 -19.47269 24992 ft 214 kts 146°
2026-04-29 16:03 63.50508 -19.44264 24997 ft 213 kts 143°
2026-04-29 16:03 63.49876 -19.41285 25006 ft 211 kts 147°
2026-04-29 16:03 63.49241 -19.38314 25001 ft 212 kts 146°
2026-04-29 16:03 63.48606 -19.35337 24999 ft 212 kts 146°
2026-04-29 16:04 63.47972 -19.32361 24997 ft 212 kts 146°
2026-04-29 16:04 63.47338 -19.29388 24997 ft 212 kts 146°
2026-04-29 16:04 63.46702 -19.26408 24998 ft 212 kts 146°
2026-04-29 16:04 63.46067 -19.23446 24998 ft 212 kts 146°
2026-04-29 16:05 63.45429 -19.20478 24996 ft 212 kts 146°
2026-04-29 16:05 63.44791 -19.17508 25007 ft 212 kts 146°
2026-04-29 16:05 63.44157 -19.14562 24998 ft 213 kts 146°
2026-04-29 16:05 63.43517 -19.11583 25000 ft 213 kts 145°
2026-04-29 16:06 63.42877 -19.08612 24999 ft 212 kts 145°
2026-04-29 16:06 63.42234 -19.05634 25003 ft 212 kts 145°
2026-04-29 16:06 63.41588 -19.02659 24999 ft 214 kts 145°
2026-04-29 16:06 63.40944 -18.99678 25004 ft 213 kts 145°
2026-04-29 16:07 63.40300 -18.96701 25000 ft 213 kts 145°
2026-04-29 16:07 63.39655 -18.93729 25002 ft 212 kts 145°
2026-04-29 16:07 63.39010 -18.90772 25002 ft 213 kts 145°
2026-04-29 16:07 63.38364 -18.87805 25007 ft 213 kts 145°
2026-04-29 16:08 63.37717 -18.84839 25002 ft 212 kts 144°
2026-04-29 16:08 63.37071 -18.81879 25008 ft 212 kts 144°
2026-04-29 16:08 63.36424 -18.78920 25008 ft 212 kts 144°
2026-04-29 16:08 63.35774 -18.75956 25013 ft 212 kts 144°
2026-04-29 16:09 63.35126 -18.72999 25012 ft 212 kts 144°
2026-04-29 16:09 63.34477 -18.70047 25014 ft 212 kts 144°
2026-04-29 16:09 63.33835 -18.67127 25002 ft 212 kts 144°
2026-04-29 16:09 63.33183 -18.64169 25004 ft 212 kts 144°
2026-04-29 16:10 63.32534 -18.61222 25015 ft 212 kts 144°
2026-04-29 16:10 63.31883 -18.58275 25015 ft 212 kts 144°
2026-04-29 16:10 63.31229 -18.55321 25015 ft 212 kts 143°
2026-04-29 16:10 63.30578 -18.52380 25013 ft 213 kts 143°
2026-04-29 16:11 63.29923 -18.49426 25015 ft 212 kts 143°
2026-04-29 16:11 63.29271 -18.46490 25018 ft 212 kts 143°
2026-04-29 16:11 63.28614 -18.43539 25016 ft 213 kts 143°
2026-04-29 16:11 63.27958 -18.40591 25020 ft 213 kts 143°
2026-04-29 16:12 63.27300 -18.37638 25018 ft 213 kts 143°
2026-04-29 16:12 63.26865 -18.35691 25018 ft 213 kts 143°
2026-04-29 16:12 63.25994 -18.31795 25017 ft 213 kts 143°
2026-04-29 16:12 63.25334 -18.28851 25023 ft 213 kts 143°
2026-04-29 16:13 63.24675 -18.25908 25019 ft 213 kts 142°
2026-04-29 16:13 63.24015 -18.22970 25019 ft 213 kts 142°
2026-04-29 16:13 63.23354 -18.20030 25020 ft 213 kts 142°
2026-04-29 16:13 63.22691 -18.17089 25023 ft 213 kts 142°
2026-04-29 16:14 63.22029 -18.14148 25023 ft 213 kts 142°
2026-04-29 16:14 63.21364 -18.11204 25021 ft 213 kts 142°
2026-04-29 16:14 63.20699 -18.08264 25023 ft 213 kts 142°
2026-04-29 16:14 63.20033 -18.05323 25023 ft 214 kts 142°
2026-04-29 16:15 63.19366 -18.02382 25024 ft 213 kts 142°
2026-04-29 16:15 63.18698 -17.99436 25022 ft 214 kts 142°
2026-04-29 16:15 63.18029 -17.96495 25025 ft 214 kts 142°
2026-04-29 16:15 63.17360 -17.93557 25028 ft 214 kts 142°
2026-04-29 16:16 63.16690 -17.90615 25027 ft 214 kts 142°
2026-04-29 16:16 63.16019 -17.87679 25029 ft 214 kts 142°
2026-04-29 16:16 63.15355 -17.84778 25028 ft 214 kts 141°
2026-04-29 16:16 63.14682 -17.81834 25030 ft 215 kts 141°
2026-04-29 16:17 63.14007 -17.78888 25030 ft 214 kts 141°
2026-04-29 16:17 63.13331 -17.75944 25027 ft 215 kts 141°
2026-04-29 16:17 63.12653 -17.72996 25030 ft 215 kts 141°
2026-04-29 16:17 63.11973 -17.70044 25034 ft 216 kts 141°
2026-04-29 16:18 63.11293 -17.67089 25033 ft 216 kts 141°
2026-04-29 16:18 63.10611 -17.64134 25032 ft 216 kts 141°
2026-04-29 16:18 63.09927 -17.61175 25031 ft 217 kts 141°
2026-04-29 16:18 63.09241 -17.58212 25036 ft 217 kts 141°
2026-04-29 16:19 63.08555 -17.55249 25036 ft 217 kts 141°
2026-04-29 16:19 63.07868 -17.52286 25039 ft 217 kts 141°
2026-04-29 16:19 63.07178 -17.49320 25033 ft 218 kts 141°
2026-04-29 16:19 63.06486 -17.46347 25037 ft 218 kts 140°
2026-04-29 16:20 63.05794 -17.43374 25038 ft 218 kts 140°
2026-04-29 16:20 63.05100 -17.40402 25036 ft 218 kts 140°
2026-04-29 16:20 63.04403 -17.37417 25035 ft 219 kts 140°
2026-04-29 16:20 63.03714 -17.34475 25038 ft 219 kts 140°
2026-04-29 16:21 63.03016 -17.31492 25039 ft 219 kts 140°
2026-04-29 16:21 63.02316 -17.28510 25038 ft 219 kts 140°
2026-04-29 16:21 63.01613 -17.25521 25041 ft 220 kts 140°
2026-04-29 16:21 63.00910 -17.22530 25039 ft 220 kts 140°
2026-04-29 16:22 63.00205 -17.19536 25042 ft 220 kts 140°
2026-04-29 16:22 62.99499 -17.16543 25039 ft 221 kts 140°
2026-04-29 16:22 62.98791 -17.13547 25043 ft 221 kts 140°
2026-04-29 16:22 62.98081 -17.10547 25046 ft 221 kts 140°
2026-04-29 16:23 62.97371 -17.07547 25047 ft 221 kts 139°
2026-04-29 16:23 62.96658 -17.04544 25036 ft 222 kts 139°
2026-04-29 16:23 62.95944 -17.01538 25046 ft 222 kts 139°
2026-04-29 16:23 62.95226 -16.98520 25046 ft 223 kts 139°
2026-04-29 16:24 62.94508 -16.95504 25048 ft 223 kts 139°
2026-04-29 16:24 62.93788 -16.92486 25046 ft 223 kts 139°
2026-04-29 16:24 62.93066 -16.89466 25048 ft 224 kts 139°
2026-04-29 16:24 62.92343 -16.86442 25049 ft 224 kts 139°
2026-04-29 16:25 62.91618 -16.83415 25049 ft 224 kts 139°
2026-04-29 16:25 62.90891 -16.80388 25048 ft 225 kts 139°
2026-04-29 16:25 62.90167 -16.77373 25047 ft 226 kts 139°
2026-04-29 16:25 62.89433 -16.74318 25052 ft 227 kts 138°
2026-04-29 16:26 62.88697 -16.71260 25054 ft 226 kts 138°
2026-04-29 16:26 62.87961 -16.68208 25053 ft 226 kts 138°
2026-04-29 16:26 62.87225 -16.65163 25053 ft 227 kts 138°
2026-04-29 16:26 62.86485 -16.62103 25053 ft 227 kts 138°
2026-04-29 16:27 62.85746 -16.59050 25055 ft 227 kts 138°
2026-04-29 16:27 62.85005 -16.55997 25051 ft 227 kts 138°
2026-04-29 16:27 62.84264 -16.52946 25051 ft 228 kts 138°
2026-04-29 16:27 62.83518 -16.49878 25052 ft 228 kts 138°
2026-04-29 16:28 62.82773 -16.46818 25056 ft 228 kts 138°
2026-04-29 16:28 62.82026 -16.43757 25052 ft 228 kts 138°
2026-04-29 16:28 62.81277 -16.40692 25050 ft 229 kts 138°
2026-04-29 16:28 62.80523 -16.37613 25054 ft 230 kts 137°
2026-04-29 16:29 62.79773 -16.34555 25057 ft 231 kts 137°
2026-04-29 16:29 62.79012 -16.31448 25056 ft 232 kts 137°
2026-04-29 16:29 62.78253 -16.28350 25054 ft 232 kts 137°
2026-04-29 16:29 62.77491 -16.25251 25053 ft 232 kts 137°
2026-04-29 16:30 62.76726 -16.22147 25055 ft 231 kts 137°
2026-04-29 16:30 62.75964 -16.19059 25056 ft 232 kts 137°
2026-04-29 16:30 62.75197 -16.15956 25056 ft 232 kts 137°
2026-04-29 16:30 62.74431 -16.12858 25060 ft 232 kts 137°
2026-04-29 16:31 62.73663 -16.09760 25060 ft 232 kts 137°
2026-04-29 16:31 62.72894 -16.06659 25059 ft 233 kts 137°
2026-04-29 16:31 62.72123 -16.03555 25057 ft 233 kts 137°
2026-04-29 16:31 62.71350 -16.00447 25059 ft 233 kts 137°
2026-04-29 16:32 62.70575 -15.97336 25060 ft 234 kts 137°
2026-04-29 16:32 62.70060 -15.95273 25058 ft 234 kts 136°
2026-04-29 16:32 62.69028 -15.91140 25062 ft 235 kts 136°
2026-04-29 16:32 62.68245 -15.88008 25060 ft 235 kts 136°
2026-04-29 16:33 62.66684 -15.81780 25065 ft 235 kts 136°
2026-04-29 16:33 62.65899 -15.78658 25068 ft 235 kts 136°
2026-04-29 16:33 62.65114 -15.75538 25066 ft 235 kts 136°
2026-04-29 16:34 62.64326 -15.72408 25063 ft 235 kts 136°
2026-04-29 16:34 62.63535 -15.69277 25057 ft 236 kts 136°
2026-04-29 16:34 62.62746 -15.66150 25060 ft 236 kts 136°
2026-04-29 16:34 62.61954 -15.63022 25062 ft 236 kts 136°
2026-04-29 16:35 62.61160 -15.59889 25062 ft 236 kts 136°
2026-04-29 16:35 62.60367 -15.56762 25062 ft 236 kts 136°
2026-04-29 16:35 62.59572 -15.53635 25064 ft 237 kts 136°
2026-04-29 16:35 62.58787 -15.50547 25062 ft 237 kts 135°
2026-04-29 16:36 62.57991 -15.47421 25065 ft 237 kts 135°
2026-04-29 16:36 62.57191 -15.44288 25065 ft 237 kts 135°
2026-04-29 16:36 62.56393 -15.41166 25067 ft 237 kts 135°
2026-04-29 16:36 62.55593 -15.38037 25065 ft 237 kts 135°
2026-04-29 16:37 62.54791 -15.34909 25067 ft 237 kts 135°
2026-04-29 16:37 62.54248 -15.32793 25066 ft 238 kts 135°
2026-04-29 16:37 62.53180 -15.28637 25067 ft 238 kts 135°
2026-04-29 16:37 62.52636 -15.26522 25066 ft 239 kts 135°
2026-04-29 16:38 62.51835 -15.23411 25065 ft 239 kts 135°
2026-04-29 16:38 62.51027 -15.20276 25068 ft 239 kts 135°
2026-04-29 16:38 62.50216 -15.17138 25070 ft 239 kts 135°
2026-04-29 16:38 62.49402 -15.13992 25067 ft 239 kts 135°
2026-04-29 16:39 62.48589 -15.10852 25066 ft 239 kts 134°
2026-04-29 16:39 62.47776 -15.07719 25070 ft 239 kts 134°
2026-04-29 16:39 62.46960 -15.04579 25072 ft 240 kts 134°
2026-04-29 16:39 62.46141 -15.01431 25070 ft 240 kts 134°
2026-04-29 16:40 62.45323 -14.98291 25069 ft 240 kts 134°
2026-04-29 16:40 62.44505 -14.95152 25076 ft 240 kts 134°
2026-04-29 16:40 62.43684 -14.92010 25074 ft 240 kts 134°
2026-04-29 16:40 62.42861 -14.88864 25073 ft 241 kts 134°
2026-04-29 16:41 62.42037 -14.85718 25073 ft 241 kts 133°
2026-04-29 16:41 62.41212 -14.82575 25078 ft 241 kts 133°
2026-04-29 16:41 62.40386 -14.79430 25076 ft 241 kts 133°
2026-04-29 16:41 62.39558 -14.76284 25078 ft 241 kts 133°
2026-04-29 16:42 62.38730 -14.73141 25079 ft 241 kts 133°
2026-04-29 16:42 62.37910 -14.70033 25080 ft 241 kts 133°
2026-04-29 16:42 62.37079 -14.66887 25082 ft 242 kts 133°
2026-04-29 16:42 62.36246 -14.63741 25084 ft 242 kts 133°
2026-04-29 16:43 62.35412 -14.60590 25081 ft 242 kts 133°
2026-04-29 16:43 62.34577 -14.57443 25086 ft 242 kts 133°
2026-04-29 16:43 62.33739 -14.54291 25087 ft 243 kts 133°
2026-04-29 16:43 62.32900 -14.51136 25087 ft 243 kts 133°
2026-04-29 16:44 62.32058 -14.47975 25086 ft 243 kts 132°
2026-04-29 16:44 62.31215 -14.44818 25091 ft 244 kts 132°
2026-04-29 16:44 62.30366 -14.41646 25094 ft 246 kts 132°
2026-04-29 16:44 62.29514 -14.38458 25098 ft 247 kts 132°
2026-04-29 16:45 62.28652 -14.35242 25092 ft 248 kts 131°
2026-04-29 16:45 62.27788 -14.32020 25097 ft 249 kts 131°
2026-04-29 16:45 62.26922 -14.28794 25095 ft 249 kts 131°
2026-04-29 16:45 62.26058 -14.25578 25097 ft 248 kts 131°
2026-04-29 16:46 62.25195 -14.22378 25101 ft 247 kts 131°
2026-04-29 16:46 62.24334 -14.19188 25100 ft 247 kts 131°
2026-04-29 16:46 62.23473 -14.16003 25104 ft 247 kts 131°
2026-04-29 16:46 62.22612 -14.12822 25103 ft 247 kts 131°
2026-04-29 16:47 62.21749 -14.09641 25103 ft 247 kts 131°
2026-04-29 16:47 62.20883 -14.06450 25107 ft 247 kts 131°
2026-04-29 16:47 62.20029 -14.03306 25109 ft 247 kts 131°
2026-04-29 16:47 62.19163 -14.00122 25109 ft 247 kts 131°
2026-04-29 16:48 62.18295 -13.96940 25107 ft 247 kts 130°
2026-04-29 16:48 62.17427 -13.93762 25114 ft 248 kts 130°
2026-04-29 16:48 62.16557 -13.90579 25112 ft 248 kts 130°
2026-04-29 16:48 62.15686 -13.87395 25115 ft 248 kts 130°
2026-04-29 16:49 62.14813 -13.84212 25115 ft 248 kts 130°
2026-04-29 16:49 62.13940 -13.81029 25117 ft 248 kts 130°
2026-04-29 16:49 62.13064 -13.77843 25118 ft 249 kts 130°
2026-04-29 16:49 62.12189 -13.74663 25121 ft 249 kts 130°
2026-04-29 16:50 62.11306 -13.71460 25120 ft 249 kts 130°
2026-04-29 16:50 62.10426 -13.68274 25122 ft 249 kts 130°
2026-04-29 16:50 62.09546 -13.65089 25123 ft 249 kts 130°
2026-04-29 16:50 62.08664 -13.61903 25123 ft 249 kts 130°
2026-04-29 16:51 62.07781 -13.58721 25127 ft 249 kts 129°
2026-04-29 16:51 62.06903 -13.55555 25130 ft 249 kts 129°
2026-04-29 16:51 62.06016 -13.52366 25129 ft 250 kts 129°
2026-04-29 16:51 62.05130 -13.49184 25132 ft 250 kts 129°
2026-04-29 16:52 62.04243 -13.46003 25131 ft 249 kts 129°
2026-04-29 16:52 62.03368 -13.42866 25133 ft 250 kts 129°
2026-04-29 16:52 62.02476 -13.39677 25135 ft 250 kts 129°
2026-04-29 16:52 62.01582 -13.36485 25134 ft 250 kts 129°
2026-04-29 16:53 62.00690 -13.33302 25133 ft 250 kts 129°
2026-04-29 16:53 61.99797 -13.30120 25140 ft 251 kts 129°
2026-04-29 16:53 61.98898 -13.26926 25140 ft 251 kts 129°
2026-04-29 16:53 61.98001 -13.23739 25143 ft 251 kts 129°
2026-04-29 16:54 61.97102 -13.20550 25144 ft 251 kts 128°
2026-04-29 16:54 61.96203 -13.17364 25147 ft 252 kts 128°
2026-04-29 16:54 61.95301 -13.14176 25151 ft 252 kts 128°
2026-04-29 16:54 61.94410 -13.11028 25147 ft 252 kts 128°
2026-04-29 16:55 61.93505 -13.07837 25151 ft 252 kts 128°
2026-04-29 16:55 61.92598 -13.04639 25143 ft 252 kts 128°
2026-04-29 16:55 61.91690 -13.01448 25154 ft 253 kts 128°
2026-04-29 16:55 61.90781 -12.98255 25155 ft 253 kts 128°
2026-04-29 16:56 61.89871 -12.95064 25162 ft 253 kts 128°
2026-04-29 16:56 61.88960 -12.91874 25158 ft 253 kts 128°
2026-04-29 16:56 61.88047 -12.88681 25159 ft 253 kts 127°
2026-04-29 16:56 61.87133 -12.85488 25161 ft 254 kts 127°
2026-04-29 16:57 61.86217 -12.82294 25165 ft 254 kts 127°
2026-04-29 16:57 61.85300 -12.79100 25166 ft 254 kts 127°
2026-04-29 16:57 61.84381 -12.75905 25165 ft 254 kts 127°
2026-04-29 16:57 61.83462 -12.72715 25167 ft 254 kts 127°
2026-04-29 16:58 61.82541 -12.69521 25173 ft 254 kts 127°
2026-04-29 16:58 61.81620 -12.66330 25171 ft 254 kts 127°
2026-04-29 16:58 61.80707 -12.63173 25173 ft 255 kts 127°
2026-04-29 16:58 61.79782 -12.59979 25172 ft 255 kts 127°
2026-04-29 16:59 61.78856 -12.56785 25173 ft 255 kts 127°
2026-04-29 16:59 61.77929 -12.53593 25177 ft 255 kts 126°
2026-04-29 16:59 61.77000 -12.50397 25174 ft 255 kts 126°
2026-04-29 16:59 61.76071 -12.47206 25176 ft 255 kts 126°
2026-04-29 17:00 61.75140 -12.44014 25180 ft 255 kts 126°
2026-04-29 17:00 61.74205 -12.40814 25182 ft 255 kts 126°
2026-04-29 17:00 61.73272 -12.37622 25179 ft 256 kts 126°
2026-04-29 17:00 61.72335 -12.34423 25181 ft 256 kts 126°
2026-04-29 17:01 61.71400 -12.31234 25183 ft 256 kts 126°
2026-04-29 17:01 61.70476 -12.28089 25189 ft 256 kts 126°
2026-04-29 17:01 61.69538 -12.24899 25187 ft 256 kts 126°
2026-04-29 17:01 61.68598 -12.21707 25188 ft 256 kts 126°
2026-04-29 17:02 61.67657 -12.18516 25185 ft 256 kts 126°
2026-04-29 17:02 61.66715 -12.15325 25194 ft 256 kts 125°
2026-04-29 17:02 61.65776 -12.12151 25201 ft 257 kts 125°
2026-04-29 17:02 61.64832 -12.08962 25196 ft 257 kts 125°
2026-04-29 17:03 61.63887 -12.05775 25199 ft 256 kts 122°
2026-04-29 17:03 61.62945 -12.02595 25197 ft 256 kts 125°
2026-04-29 17:03 61.61996 -11.99415 25199 ft 257 kts 125°
2026-04-29 17:03 61.61045 -11.96223 25200 ft 257 kts 125°
2026-04-29 17:04 61.60107 -11.93072 25210 ft 257 kts 125°
2026-04-29 17:04 61.59154 -11.89882 25211 ft 257 kts 125°
2026-04-29 17:04 61.58206 -11.86709 25213 ft 257 kts 125°
2026-04-29 17:04 61.57253 -11.83528 25218 ft 257 kts 125°
2026-04-29 17:05 61.56301 -11.80354 25216 ft 257 kts 125°
2026-04-29 17:05 61.55349 -11.77184 25213 ft 257 kts 125°
2026-04-29 17:05 61.54398 -11.74019 25217 ft 257 kts 125°
2026-04-29 17:05 61.53445 -11.70856 25219 ft 256 kts 125°
2026-04-29 17:06 61.52493 -11.67697 25221 ft 256 kts 125°
2026-04-29 17:06 61.51540 -11.64542 25221 ft 256 kts 125°
2026-04-29 17:06 61.50586 -11.61384 25221 ft 256 kts 125°
2026-04-29 17:06 61.49633 -11.58237 25222 ft 256 kts 125°
2026-04-29 17:07 61.48692 -11.55134 25229 ft 256 kts 126°
2026-04-29 17:07 61.47738 -11.51993 25226 ft 256 kts 126°
2026-04-29 17:07 61.46785 -11.48857 25229 ft 255 kts 126°
2026-04-29 17:07 61.45831 -11.45723 25227 ft 255 kts 126°
2026-04-29 17:08 61.44877 -11.42592 25260 ft 255 kts 126°
2026-04-29 17:08 61.43951 -11.39541 25249 ft 245 kts 136°
2026-04-29 17:08 61.43053 -11.36598 25241 ft 236 kts 136°
2026-04-29 17:08 61.42179 -11.33744 25239 ft 231 kts 136°
2026-04-29 17:09 61.41318 -11.30943 25237 ft 227 kts 136°
2026-04-29 17:09 61.40470 -11.28184 25231 ft 225 kts 137°
2026-04-29 17:09 61.39629 -11.25450 25230 ft 223 kts 137°
2026-04-29 17:09 61.38794 -11.22737 25231 ft 222 kts 137°
2026-04-29 17:10 61.37963 -11.20037 25232 ft 221 kts 137°
2026-04-29 17:10 61.37133 -11.17347 25231 ft 220 kts 137°
2026-04-29 17:10 61.36305 -11.14665 25231 ft 220 kts 137°
2026-04-29 17:10 61.35478 -11.11987 25232 ft 220 kts 137°
2026-04-29 17:11 61.34650 -11.09313 25237 ft 219 kts 137°
2026-04-29 17:11 61.33823 -11.06643 25239 ft 219 kts 137°
2026-04-29 17:11 61.33007 -11.04011 25236 ft 219 kts 137°
2026-04-29 17:11 61.32180 -11.01347 25240 ft 219 kts 137°
2026-04-29 17:12 61.31352 -10.98684 25243 ft 219 kts 137°
2026-04-29 17:12 61.30525 -10.96023 25239 ft 219 kts 137°
2026-04-29 17:12 61.29698 -10.93370 25245 ft 219 kts 137°
2026-04-29 17:12 61.29136 -10.91568 25245 ft 219 kts 137°
2026-04-29 17:13 61.28039 -10.88055 25240 ft 219 kts 137°
2026-04-29 17:13 61.27210 -10.85400 25247 ft 219 kts 137°
2026-04-29 17:13 61.26380 -10.82747 25241 ft 219 kts 137°
2026-04-29 17:13 61.25547 -10.80090 25246 ft 219 kts 137°
2026-04-29 17:14 61.24718 -10.77446 25249 ft 219 kts 136°
2026-04-29 17:14 61.23886 -10.74798 25250 ft 219 kts 136°
2026-04-29 17:14 61.23053 -10.72146 25249 ft 219 kts 136°
2026-04-29 17:14 61.22220 -10.69500 25252 ft 219 kts 136°
2026-04-29 17:15 61.21387 -10.66856 25250 ft 219 kts 136°
2026-04-29 17:15 61.20553 -10.64213 25254 ft 219 kts 136°
2026-04-29 17:15 61.19718 -10.61567 25256 ft 219 kts 136°
2026-04-29 17:15 61.18884 -10.58931 25253 ft 219 kts 136°
2026-04-29 17:16 61.18058 -10.56322 25256 ft 219 kts 136°
2026-04-29 17:16 61.17222 -10.53685 25256 ft 219 kts 136°
2026-04-29 17:16 61.16386 -10.51049 25256 ft 219 kts 136°
2026-04-29 17:16 61.15551 -10.48420 25260 ft 219 kts 136°
2026-04-29 17:17 61.14714 -10.45787 25260 ft 219 kts 136°
2026-04-29 17:17 61.13876 -10.43156 25262 ft 219 kts 136°
2026-04-29 17:17 61.13038 -10.40526 25261 ft 219 kts 136°
2026-04-29 17:17 61.12199 -10.37897 25261 ft 219 kts 136°
2026-04-29 17:18 61.11360 -10.35269 25260 ft 219 kts 136°
2026-04-29 17:18 61.10520 -10.32642 25266 ft 219 kts 136°
2026-04-29 17:18 61.09679 -10.30017 25268 ft 219 kts 136°
2026-04-29 17:18 61.08838 -10.27394 25265 ft 219 kts 136°
2026-04-29 17:19 61.07997 -10.24772 25269 ft 219 kts 136°
2026-04-29 17:19 61.07153 -10.22146 25272 ft 219 kts 136°
2026-04-29 17:19 61.06311 -10.19526 25274 ft 219 kts 136°
2026-04-29 17:19 61.05468 -10.16907 25272 ft 219 kts 136°
2026-04-29 17:20 61.04626 -10.14296 25274 ft 219 kts 136°
2026-04-29 17:20 61.03780 -10.11674 25275 ft 219 kts 136°
2026-04-29 17:20 61.02935 -10.09060 25275 ft 219 kts 136°
2026-04-29 17:20 61.02098 -10.06471 25277 ft 219 kts 136°
2026-04-29 17:21 61.01254 -10.03866 25278 ft 219 kts 136°
2026-04-29 17:21 61.00408 -10.01257 25276 ft 219 kts 136°
2026-04-29 17:21 60.99643 -9.98498 25282 ft 226 kts 126°
2026-04-29 17:21 60.98993 -9.95542 25283 ft 227 kts 126°
2026-04-29 17:22 60.98335 -9.92592 25280 ft 226 kts 127°
2026-04-29 17:22 60.97668 -9.89651 25281 ft 226 kts 127°
2026-04-29 17:22 60.97003 -9.86717 25283 ft 226 kts 127°
2026-04-29 17:22 60.96337 -9.83777 25285 ft 226 kts 127°
2026-04-29 17:23 60.95672 -9.80844 25284 ft 226 kts 127°
2026-04-29 17:23 60.95005 -9.77911 25289 ft 226 kts 126°
2026-04-29 17:23 60.94339 -9.74980 25286 ft 226 kts 126°
2026-04-29 17:23 60.93680 -9.72088 25286 ft 226 kts 126°
2026-04-29 17:24 60.93012 -9.69159 25289 ft 226 kts 126°
2026-04-29 17:24 60.92343 -9.66232 25288 ft 226 kts 127°
2026-04-29 17:24 60.91674 -9.63305 25288 ft 226 kts 126°
2026-04-29 17:24 60.91006 -9.60387 25290 ft 226 kts 126°
2026-04-29 17:25 60.90332 -9.57450 25292 ft 226 kts 126°
2026-04-29 17:25 60.89661 -9.54528 25295 ft 226 kts 126°
2026-04-29 17:25 60.88988 -9.51601 25289 ft 226 kts 126°
2026-04-29 17:25 60.88315 -9.48681 25293 ft 226 kts 126°
2026-04-29 17:26 60.87642 -9.45763 25295 ft 226 kts 126°
2026-04-29 17:26 60.86969 -9.42847 25294 ft 226 kts 126°
2026-04-29 17:26 60.86294 -9.39926 25292 ft 226 kts 126°
2026-04-29 17:26 60.85628 -9.37052 25299 ft 226 kts 126°
2026-04-29 17:27 60.84953 -9.34139 25299 ft 226 kts 126°
2026-04-29 17:27 60.84277 -9.31228 25298 ft 226 kts 126°
2026-04-29 17:27 60.83600 -9.28318 25300 ft 226 kts 126°
2026-04-29 17:27 60.82923 -9.25407 25299 ft 226 kts 126°
2026-04-29 17:28 60.82245 -9.22498 25300 ft 226 kts 126°
2026-04-29 17:28 60.81566 -9.19592 25302 ft 226 kts 126°
2026-04-29 17:28 60.80887 -9.16686 25302 ft 226 kts 126°
2026-04-29 17:28 60.80206 -9.13776 25300 ft 226 kts 126°
2026-04-29 17:29 60.79526 -9.10874 25305 ft 226 kts 126°
2026-04-29 17:29 60.78845 -9.07974 25302 ft 226 kts 126°
2026-04-29 17:29 60.78393 -9.06052 25309 ft 226 kts 126°
2026-04-29 17:29 60.77713 -9.03161 25309 ft 226 kts 126°
2026-04-29 17:30 60.77031 -9.00264 25311 ft 226 kts 126°
2026-04-29 17:30 60.76349 -8.97368 25311 ft 226 kts 126°
2026-04-29 17:30 60.75665 -8.94475 25308 ft 226 kts 126°
2026-04-29 17:30 60.74982 -8.91586 25311 ft 226 kts 126°
2026-04-29 17:31 60.74296 -8.88691 25311 ft 226 kts 126°
2026-04-29 17:31 60.73611 -8.85803 25312 ft 226 kts 126°
2026-04-29 17:31 60.72925 -8.82910 25314 ft 226 kts 126°
2026-04-29 17:31 60.72240 -8.80031 25315 ft 226 kts 126°
2026-04-29 17:32 60.71554 -8.77147 25318 ft 226 kts 126°
2026-04-29 17:32 60.70865 -8.74258 25319 ft 226 kts 126°
2026-04-29 17:32 60.70179 -8.71383 25317 ft 226 kts 126°
2026-04-29 17:32 60.69498 -8.68536 25319 ft 226 kts 126°
2026-04-29 17:33 60.68809 -8.65658 25318 ft 226 kts 126°
2026-04-29 17:33 60.68120 -8.62782 25323 ft 226 kts 126°
2026-04-29 17:33 60.67430 -8.59907 25320 ft 226 kts 126°
2026-04-29 17:33 60.66737 -8.57026 25320 ft 226 kts 126°
2026-04-29 17:34 60.66046 -8.54153 25334 ft 226 kts 126°
2026-04-29 17:34 60.65356 -8.51287 25327 ft 226 kts 126°
2026-04-29 17:34 60.64661 -8.48409 25328 ft 226 kts 126°
2026-04-29 17:34 60.63969 -8.45545 25322 ft 226 kts 126°
2026-04-29 17:35 60.62815 -8.40774 25323 ft 226 kts 126°
2026-04-29 17:35 60.61884 -8.36936 25323 ft 226 kts 126°
2026-04-29 17:35 60.61188 -8.34072 25329 ft 226 kts 126°
2026-04-29 17:36 60.60492 -8.31209 25330 ft 226 kts 126°
2026-04-29 17:36 60.59796 -8.28349 25331 ft 226 kts 126°
2026-04-29 17:36 60.59099 -8.25489 25330 ft 226 kts 126°
2026-04-29 17:36 60.58401 -8.22632 25336 ft 225 kts 126°
2026-04-29 17:37 60.57703 -8.19776 25337 ft 225 kts 126°
2026-04-29 17:37 60.57004 -8.16922 25341 ft 225 kts 126°
2026-04-29 17:37 60.56313 -8.14100 25335 ft 225 kts 126°
2026-04-29 17:37 60.55613 -8.11249 25338 ft 225 kts 126°
2026-04-29 17:38 60.54913 -8.08399 25337 ft 225 kts 126°
2026-04-29 17:38 60.54212 -8.05550 25339 ft 225 kts 126°
2026-04-29 17:38 60.53509 -8.02696 25340 ft 225 kts 126°
2026-04-29 17:38 60.52808 -7.99856 25342 ft 225 kts 126°
2026-04-29 17:39 60.52105 -7.97010 25338 ft 225 kts 126°
2026-04-29 17:39 60.51402 -7.94167 25340 ft 225 kts 126°
2026-04-29 17:39 60.50697 -7.91319 25341 ft 225 kts 126°
2026-04-29 17:39 60.49993 -7.88478 25343 ft 225 kts 126°
2026-04-29 17:40 60.49288 -7.85640 25344 ft 225 kts 126°
2026-04-29 17:40 60.48582 -7.82801 25340 ft 225 kts 126°
2026-04-29 17:40 60.47876 -7.79964 25347 ft 225 kts 126°
2026-04-29 17:40 60.47177 -7.77161 25347 ft 225 kts 126°
2026-04-29 17:41 60.46470 -7.74327 25348 ft 225 kts 126°
2026-04-29 17:41 60.45763 -7.71495 25346 ft 225 kts 126°
2026-04-29 17:41 60.45056 -7.68671 25347 ft 225 kts 126°
2026-04-29 17:41 60.44347 -7.65843 25346 ft 225 kts 126°
2026-04-29 17:42 60.43639 -7.63017 25349 ft 225 kts 126°
2026-04-29 17:42 60.42930 -7.60196 25349 ft 225 kts 125°
2026-04-29 17:42 60.42218 -7.57365 25348 ft 225 kts 126°
2026-04-29 17:42 60.41507 -7.54543 25351 ft 225 kts 126°
2026-04-29 17:43 60.40795 -7.51715 25358 ft 225 kts 126°
2026-04-29 17:43 60.40084 -7.48902 25357 ft 225 kts 126°
2026-04-29 17:43 60.39370 -7.46076 25356 ft 225 kts 126°
2026-04-29 17:43 60.38657 -7.43257 25351 ft 225 kts 126°
2026-04-29 17:44 60.37944 -7.40445 25357 ft 225 kts 125°
2026-04-29 17:44 60.37230 -7.37629 25356 ft 225 kts 125°
2026-04-29 17:44 60.36513 -7.34808 25358 ft 225 kts 125°
2026-04-29 17:44 60.35797 -7.31995 25361 ft 225 kts 125°
2026-04-29 17:45 60.35081 -7.29184 25360 ft 225 kts 125°
2026-04-29 17:45 60.34364 -7.26373 25359 ft 225 kts 125°
2026-04-29 17:45 60.33647 -7.23564 25357 ft 225 kts 125°
2026-04-29 17:45 60.32929 -7.20757 25357 ft 225 kts 125°
2026-04-29 17:46 60.32219 -7.17982 25361 ft 225 kts 125°
2026-04-29 17:46 60.31500 -7.15177 25363 ft 225 kts 125°
2026-04-29 17:46 60.30781 -7.12375 25359 ft 225 kts 125°
2026-04-29 17:46 60.30061 -7.09573 25363 ft 225 kts 125°
2026-04-29 17:47 60.29341 -7.06774 25362 ft 225 kts 125°
2026-04-29 17:47 60.28618 -7.03969 25361 ft 225 kts 125°
2026-04-29 17:47 60.27898 -7.01177 25359 ft 225 kts 125°
2026-04-29 17:47 60.27176 -6.98380 25363 ft 225 kts 125°
2026-04-29 17:48 60.26453 -6.95585 25367 ft 225 kts 125°
2026-04-29 17:48 60.25730 -6.92792 25364 ft 225 kts 125°
2026-04-29 17:48 60.25006 -6.90000 25368 ft 225 kts 125°
2026-04-29 17:48 60.24281 -6.87208 25369 ft 225 kts 125°
2026-04-29 17:49 60.23556 -6.84418 25365 ft 225 kts 125°
2026-04-29 17:49 60.22829 -6.81624 25372 ft 225 kts 125°
2026-04-29 17:49 60.22104 -6.78842 25372 ft 225 kts 125°
2026-04-29 17:49 60.21376 -6.76049 25375 ft 225 kts 125°
2026-04-29 17:50 60.20649 -6.73264 25377 ft 225 kts 125°
2026-04-29 17:50 60.19921 -6.70480 25375 ft 225 kts 125°
2026-04-29 17:50 60.19192 -6.67697 25375 ft 225 kts 125°
2026-04-29 17:50 60.18464 -6.64922 25377 ft 225 kts 125°
2026-04-29 17:51 60.17733 -6.62135 25374 ft 225 kts 125°
2026-04-29 17:51 60.17010 -6.59386 25375 ft 225 kts 125°
2026-04-29 17:51 60.16279 -6.56608 25376 ft 225 kts 125°
2026-04-29 17:51 60.15548 -6.53833 25375 ft 225 kts 125°
2026-04-29 17:52 60.14816 -6.51059 25375 ft 225 kts 125°
2026-04-29 17:52 60.14331 -6.49220 25379 ft 225 kts 125°
2026-04-29 17:52 60.13349 -6.45507 25378 ft 225 kts 125°
2026-04-29 17:52 60.12616 -6.42736 25377 ft 225 kts 125°
2026-04-29 17:53 60.11881 -6.39966 25380 ft 225 kts 125°
2026-04-29 17:53 60.11147 -6.37197 25377 ft 225 kts 125°
2026-04-29 17:53 60.10411 -6.34431 25382 ft 225 kts 125°
2026-04-29 17:53 60.09684 -6.31697 25382 ft 225 kts 125°
2026-04-29 17:54 60.08946 -6.28928 25379 ft 225 kts 125°
2026-04-29 17:54 60.08210 -6.26166 25385 ft 225 kts 125°
2026-04-29 17:54 60.07474 -6.23411 25382 ft 225 kts 125°
2026-04-29 17:54 60.06733 -6.20639 25382 ft 225 kts 125°
2026-04-29 17:55 60.05996 -6.17886 25385 ft 225 kts 125°
2026-04-29 17:55 60.05257 -6.15128 25386 ft 225 kts 125°
2026-04-29 17:55 60.04517 -6.12373 25388 ft 225 kts 125°
2026-04-29 17:55 60.03777 -6.09618 25387 ft 225 kts 125°
2026-04-29 17:56 60.03034 -6.06858 25390 ft 225 kts 125°
2026-04-29 17:56 60.02303 -6.04142 25389 ft 225 kts 125°
2026-04-29 17:56 60.01561 -6.01391 25390 ft 225 kts 125°
2026-04-29 17:56 60.00819 -5.98642 25388 ft 225 kts 124°
2026-04-29 17:57 60.00074 -5.95888 25388 ft 225 kts 124°
2026-04-29 17:57 59.99331 -5.93142 25390 ft 225 kts 125°
2026-04-29 17:57 59.98589 -5.90403 25389 ft 225 kts 125°
2026-04-29 17:57 59.98095 -5.88583 25389 ft 225 kts 125°
2026-04-29 17:58 59.97097 -5.84911 25393 ft 225 kts 125°
2026-04-29 17:58 59.96350 -5.82164 25390 ft 225 kts 124°
2026-04-29 17:58 59.95604 -5.79422 25391 ft 225 kts 124°
2026-04-29 17:58 59.94867 -5.76720 25392 ft 225 kts 124°
2026-04-29 17:59 59.94120 -5.73983 25394 ft 225 kts 124°
2026-04-29 17:59 59.93372 -5.71247 25392 ft 225 kts 124°
2026-04-29 17:59 59.92624 -5.68512 25393 ft 225 kts 124°
2026-04-29 17:59 59.91876 -5.65780 25394 ft 225 kts 124°
2026-04-29 18:00 59.91127 -5.63049 25398 ft 224 kts 124°
2026-04-29 18:00 59.90377 -5.60321 25401 ft 224 kts 124°
2026-04-29 18:00 59.89627 -5.57592 25395 ft 225 kts 124°
2026-04-29 18:00 59.88876 -5.54864 25398 ft 225 kts 124°
2026-04-29 18:01 59.88125 -5.52137 25399 ft 225 kts 124°
2026-04-29 18:01 59.87373 -5.49412 25399 ft 225 kts 124°
2026-04-29 18:01 59.86620 -5.46688 25405 ft 224 kts 124°
2026-04-29 18:01 59.85866 -5.43961 25405 ft 224 kts 124°
2026-04-29 18:02 59.85120 -5.41271 25405 ft 225 kts 124°
2026-04-29 18:02 59.84366 -5.38551 25405 ft 225 kts 124°
2026-04-29 18:02 59.83613 -5.35838 25405 ft 225 kts 124°
2026-04-29 18:02 59.82858 -5.33120 25398 ft 225 kts 124°
2026-04-29 18:03 59.82101 -5.30398 25403 ft 224 kts 125°
2026-04-29 18:03 59.81347 -5.27693 25404 ft 224 kts 124°
2026-04-29 18:03 59.80588 -5.24975 25403 ft 224 kts 124°
2026-04-29 18:03 59.79831 -5.22263 25404 ft 224 kts 124°
2026-04-29 18:04 59.79075 -5.19559 25409 ft 224 kts 124°
2026-04-29 18:04 59.78317 -5.16851 25412 ft 224 kts 124°
2026-04-29 18:04 59.77558 -5.14143 25410 ft 224 kts 124°
2026-04-29 18:04 59.76799 -5.11437 25407 ft 224 kts 124°
2026-04-29 18:05 59.76039 -5.08732 25405 ft 224 kts 124°
2026-04-29 18:05 59.75277 -5.06023 25404 ft 224 kts 124°
2026-04-29 18:05 59.74517 -5.03324 25405 ft 224 kts 124°
2026-04-29 18:05 59.73756 -5.00624 25404 ft 224 kts 124°
2026-04-29 18:06 59.72994 -4.97925 25407 ft 224 kts 124°
2026-04-29 18:06 59.72242 -4.95264 25408 ft 224 kts 124°
2026-04-29 18:06 59.71478 -4.92562 25406 ft 224 kts 124°
2026-04-29 18:06 59.70714 -4.89867 25403 ft 224 kts 124°
2026-04-29 18:07 59.69951 -4.87175 25408 ft 224 kts 124°
2026-04-29 18:07 59.69187 -4.84484 25406 ft 224 kts 124°
2026-04-29 18:07 59.68421 -4.81789 25407 ft 224 kts 124°
2026-04-29 18:07 59.67657 -4.79103 25405 ft 224 kts 124°
2026-04-29 18:08 59.66891 -4.76418 25405 ft 224 kts 124°
2026-04-29 18:08 59.66126 -4.73735 25405 ft 224 kts 124°
2026-04-29 18:08 59.65357 -4.71043 25405 ft 224 kts 124°
2026-04-29 18:08 59.64591 -4.68362 25405 ft 224 kts 124°
2026-04-29 18:09 59.63824 -4.65683 25404 ft 224 kts 124°
2026-04-29 18:09 59.63057 -4.63009 25405 ft 224 kts 124°
2026-04-29 18:09 59.62300 -4.60370 25403 ft 224 kts 124°
2026-04-29 18:09 59.61532 -4.57698 25404 ft 224 kts 124°
2026-04-29 18:10 59.60765 -4.55031 25411 ft 224 kts 124°
2026-04-29 18:10 59.59995 -4.52357 25410 ft 224 kts 124°
2026-04-29 18:10 59.59225 -4.49688 25412 ft 224 kts 124°
2026-04-29 18:10 59.58456 -4.47020 25415 ft 224 kts 124°
2026-04-29 18:11 59.57685 -4.44354 25409 ft 224 kts 124°
2026-04-29 18:11 59.56914 -4.41689 25409 ft 224 kts 124°
2026-04-29 18:11 59.56151 -4.39055 25410 ft 224 kts 124°
2026-04-29 18:11 59.55379 -4.36392 25411 ft 224 kts 124°
2026-04-29 18:12 59.54598 -4.33702 25408 ft 224 kts 124°
2026-04-29 18:12 59.53825 -4.31042 25408 ft 224 kts 124°
2026-04-29 18:12 59.53062 -4.28419 25408 ft 224 kts 124°
2026-04-29 18:12 59.52288 -4.25761 25405 ft 224 kts 124°
2026-04-29 18:13 59.51513 -4.23105 25412 ft 224 kts 124°
2026-04-29 18:13 59.50738 -4.20451 25412 ft 224 kts 124°
2026-04-29 18:13 59.49961 -4.17792 25409 ft 224 kts 124°
2026-04-29 18:13 59.49185 -4.15139 25412 ft 224 kts 124°
2026-04-29 18:14 59.48408 -4.12487 25408 ft 224 kts 124°
2026-04-29 18:14 59.47632 -4.09842 25406 ft 224 kts 124°
2026-04-29 18:14 59.46852 -4.07187 25409 ft 224 kts 124°
2026-04-29 18:14 59.46074 -4.04541 25409 ft 224 kts 124°
2026-04-29 18:15 59.45295 -4.01893 25409 ft 224 kts 124°
2026-04-29 18:15 59.44513 -3.99240 25411 ft 224 kts 124°
2026-04-29 18:15 59.43729 -3.96608 25410 ft 223 kts 127°
2026-04-29 18:15 59.42705 -3.94453 25410 ft 216 kts 147°
2026-04-29 18:16 59.41456 -3.92826 25411 ft 215 kts 151°
2026-04-29 18:16 59.40204 -3.91205 25412 ft 216 kts 150°
2026-04-29 18:16 59.38951 -3.89576 25410 ft 216 kts 150°
2026-04-29 18:16 59.37699 -3.87955 25410 ft 216 kts 150°
2026-04-29 18:17 59.36447 -3.86337 25404 ft 216 kts 150°
2026-04-29 18:17 59.35197 -3.84722 25409 ft 216 kts 150°
2026-04-29 18:17 59.33941 -3.83101 25411 ft 216 kts 150°
2026-04-29 18:17 59.32688 -3.81485 25405 ft 216 kts 150°
2026-04-29 18:18 59.31435 -3.79870 25406 ft 216 kts 150°
2026-04-29 18:18 59.30181 -3.78256 25409 ft 216 kts 150°
2026-04-29 18:18 59.28928 -3.76644 25405 ft 216 kts 150°
2026-04-29 18:18 59.27674 -3.75032 25404 ft 216 kts 150°
2026-04-29 18:19 59.26420 -3.73422 25405 ft 216 kts 150°
2026-04-29 18:19 59.25180 -3.71832 25405 ft 216 kts 150°
2026-04-29 18:19 59.23929 -3.70228 25406 ft 216 kts 150°
2026-04-29 18:19 59.22675 -3.68622 25404 ft 216 kts 150°
2026-04-29 18:20 59.21420 -3.67017 25404 ft 216 kts 150°
2026-04-29 18:20 59.20166 -3.65414 25402 ft 216 kts 150°
2026-04-29 18:20 59.18909 -3.63808 25401 ft 215 kts 150°
2026-04-29 18:20 59.17654 -3.62207 25404 ft 215 kts 150°
2026-04-29 18:21 59.16402 -3.60611 25407 ft 215 kts 150°
2026-04-29 18:21 59.15146 -3.59012 25408 ft 215 kts 150°
2026-04-29 18:21 59.13888 -3.57411 25404 ft 215 kts 150°
2026-04-29 18:21 59.12631 -3.55812 25404 ft 215 kts 150°
2026-04-29 18:22 59.11379 -3.54222 25401 ft 215 kts 150°
2026-04-29 18:22 59.10121 -3.52625 25399 ft 215 kts 150°
2026-04-29 18:22 59.09291 -3.51573 25401 ft 215 kts 150°
2026-04-29 18:22 59.08035 -3.49980 25409 ft 216 kts 150°
2026-04-29 18:23 59.06371 -3.47875 25408 ft 216 kts 150°
2026-04-29 18:23 59.05114 -3.46285 25409 ft 216 kts 150°
2026-04-29 18:23 59.03840 -3.44675 25408 ft 216 kts 150°
2026-04-29 18:23 59.02599 -3.43108 25409 ft 216 kts 150°
2026-04-29 18:24 59.01341 -3.41521 25408 ft 216 kts 150°
2026-04-29 18:24 59.00487 -3.40445 25409 ft 216 kts 150°
2026-04-29 18:24 58.99232 -3.38864 25413 ft 216 kts 150°
2026-04-29 18:24 58.97985 -3.37296 25417 ft 216 kts 150°
2026-04-29 18:25 58.96727 -3.35714 25412 ft 216 kts 150°
2026-04-29 18:25 58.95468 -3.34132 25415 ft 216 kts 150°
2026-04-29 18:25 58.94132 -3.32883 25415 ft 212 kts 167°
2026-04-29 18:25 58.92708 -3.32141 25416 ft 212 kts 166°
2026-04-29 18:26 58.91287 -3.31358 25416 ft 212 kts 166°
2026-04-29 18:26 58.89866 -3.30577 25417 ft 212 kts 166°
2026-04-29 18:26 58.88444 -3.29803 25416 ft 212 kts 166°
2026-04-29 18:26 58.87021 -3.29031 25417 ft 212 kts 166°
2026-04-29 18:27 58.85599 -3.28260 25415 ft 212 kts 166°
2026-04-29 18:27 58.84177 -3.27488 25417 ft 212 kts 166°
2026-04-29 18:27 58.82754 -3.26717 25418 ft 212 kts 166°
2026-04-29 18:27 58.81349 -3.25956 25419 ft 212 kts 166°
2026-04-29 18:28 58.79925 -3.25185 25417 ft 212 kts 166°
2026-04-29 18:28 58.78505 -3.24416 25419 ft 212 kts 166°
2026-04-29 18:28 58.77079 -3.23647 25414 ft 212 kts 166°
2026-04-29 18:28 58.75652 -3.22876 25413 ft 212 kts 166°
2026-04-29 18:29 58.74229 -3.22109 25413 ft 212 kts 166°
2026-04-29 18:29 58.72807 -3.21342 25404 ft 212 kts 166°
2026-04-29 18:29 58.71385 -3.20577 25400 ft 212 kts 166°
2026-04-29 18:29 58.69963 -3.19812 25403 ft 212 kts 166°
2026-04-29 18:30 58.68542 -3.19048 25400 ft 212 kts 166°
2026-04-29 18:30 58.67121 -3.18285 25398 ft 212 kts 166°
2026-04-29 18:30 58.65701 -3.17523 25398 ft 212 kts 166°
2026-04-29 18:30 58.64296 -3.16769 25401 ft 212 kts 166°
2026-04-29 18:31 58.62875 -3.16008 25398 ft 212 kts 166°
2026-04-29 18:31 58.61452 -3.15246 25394 ft 212 kts 166°
2026-04-29 18:31 58.60031 -3.14487 25395 ft 212 kts 166°
2026-04-29 18:31 58.58607 -3.13726 25391 ft 212 kts 166°
2026-04-29 18:32 58.57188 -3.12967 25393 ft 212 kts 166°
2026-04-29 18:32 58.54347 -3.11453 25394 ft 212 kts 166°
2026-04-29 18:32 58.52926 -3.10696 25393 ft 212 kts 166°
2026-04-29 18:33 58.51506 -3.09941 25392 ft 212 kts 166°
2026-04-29 18:33 58.50088 -3.09187 25395 ft 211 kts 166°
2026-04-29 18:33 58.48673 -3.08435 25390 ft 211 kts 166°
2026-04-29 18:33 58.47257 -3.07684 25388 ft 211 kts 166°
2026-04-29 18:34 58.45839 -3.06932 25392 ft 211 kts 166°
2026-04-29 18:34 58.44901 -3.06434 25390 ft 211 kts 166°
2026-04-29 18:34 58.43072 -3.05174 25391 ft 211 kts 161°
2026-04-29 18:34 58.41694 -3.04202 25391 ft 211 kts 161°
2026-04-29 18:35 58.40317 -3.03236 25392 ft 211 kts 161°
2026-04-29 18:35 58.39404 -3.02593 25393 ft 211 kts 161°
2026-04-29 18:35 58.38303 -3.01816 25395 ft 211 kts 161°
2026-04-29 18:35 58.36923 -3.00843 25392 ft 211 kts 161°
2026-04-29 18:36 58.35547 -2.99876 25393 ft 211 kts 161°
2026-04-29 18:36 58.34174 -2.98911 25393 ft 211 kts 161°
2026-04-29 18:36 58.32799 -2.97946 25396 ft 211 kts 161°
2026-04-29 18:36 58.31421 -2.96978 25395 ft 211 kts 161°
2026-04-29 18:37 58.30046 -2.96014 25396 ft 211 kts 161°
2026-04-29 18:37 58.28671 -2.95051 25397 ft 211 kts 161°
2026-04-29 18:37 58.27296 -2.94088 25397 ft 211 kts 161°
2026-04-29 18:37 58.25922 -2.93126 25397 ft 210 kts 161°
2026-04-29 18:38 58.24547 -2.92165 25396 ft 210 kts 161°
2026-04-29 18:38 58.23173 -2.91206 25398 ft 210 kts 161°
2026-04-29 18:38 58.21814 -2.90257 25399 ft 210 kts 161°
2026-04-29 18:38 58.20441 -2.89299 25400 ft 210 kts 161°
2026-04-29 18:39 58.19068 -2.88343 25398 ft 210 kts 161°
2026-04-29 18:39 58.17692 -2.87385 25397 ft 210 kts 161°
2026-04-29 18:39 58.16319 -2.86430 25400 ft 210 kts 161°
2026-04-29 18:39 58.14947 -2.85476 25400 ft 210 kts 161°
2026-04-29 18:40 58.13575 -2.84524 25400 ft 210 kts 161°
2026-04-29 18:40 58.12204 -2.83572 25400 ft 210 kts 161°
2026-04-29 18:40 58.10833 -2.82622 25400 ft 210 kts 161°
2026-04-29 18:40 58.09462 -2.81672 25404 ft 210 kts 161°
2026-04-29 18:41 58.05354 -2.78831 25402 ft 209 kts 161°
2026-04-29 18:41 58.03986 -2.77886 25404 ft 209 kts 161°
2026-04-29 18:42 58.02615 -2.76941 25400 ft 209 kts 161°
2026-04-29 18:42 58.01266 -2.76010 25399 ft 209 kts 161°
2026-04-29 18:42 57.99900 -2.75068 25399 ft 209 kts 161°
2026-04-29 18:42 57.98534 -2.74128 25398 ft 209 kts 161°
2026-04-29 18:43 57.97168 -2.73189 25399 ft 209 kts 161°
2026-04-29 18:43 57.95800 -2.72250 25399 ft 209 kts 161°
2026-04-29 18:43 57.94437 -2.71313 25397 ft 208 kts 160°
2026-04-29 18:43 57.93075 -2.70379 25401 ft 208 kts 160°
2026-04-29 18:44 57.91717 -2.69448 25402 ft 208 kts 160°
2026-04-29 18:44 57.90356 -2.68515 25400 ft 208 kts 160°
2026-04-29 18:44 57.88992 -2.67581 25403 ft 208 kts 160°
2026-04-29 18:44 57.87630 -2.66651 25402 ft 208 kts 160°
2026-04-29 18:45 57.86272 -2.65723 25401 ft 208 kts 160°
2026-04-29 18:45 57.84908 -2.64792 25402 ft 208 kts 160°
2026-04-29 18:45 57.83547 -2.63863 25402 ft 208 kts 160°
2026-04-29 18:45 57.82190 -2.62938 25402 ft 208 kts 160°
2026-04-29 18:46 57.81732 -2.62626 25403 ft 208 kts 160°
2026-04-29 18:46 57.79472 -2.61087 25407 ft 208 kts 160°
2026-04-29 18:46 57.78113 -2.60164 25404 ft 208 kts 160°
2026-04-29 18:46 57.76757 -2.59232 25408 ft 207 kts 159°
2026-04-29 18:47 57.75409 -2.58266 25408 ft 207 kts 159°
2026-04-29 18:47 57.74061 -2.57297 25410 ft 207 kts 159°
2026-04-29 18:47 57.72714 -2.56328 25408 ft 207 kts 159°
2026-04-29 18:47 57.71364 -2.55356 25406 ft 207 kts 159°
2026-04-29 18:48 57.70021 -2.54388 25410 ft 207 kts 159°
2026-04-29 18:48 57.68676 -2.53416 25404 ft 207 kts 159°
2026-04-29 18:48 57.67297 -2.52421 24994 ft 217 kts 159°
2026-04-29 18:48 57.65901 -2.51432 24535 ft 215 kts 159°
2026-04-29 18:49 57.64517 -2.50470 24074 ft 210 kts 159°
2026-04-29 18:49 57.63152 -2.49526 23528 ft 208 kts 159°
2026-04-29 18:49 57.61796 -2.48592 22935 ft 207 kts 159°
2026-04-29 18:49 57.60442 -2.47663 22355 ft 207 kts 158°
2026-04-29 18:50 57.59089 -2.46734 21788 ft 207 kts 158°
2026-04-29 18:50 57.57694 -2.46051 21224 ft 209 kts 173°
2026-04-29 18:50 57.56236 -2.45947 20683 ft 210 kts 173°
2026-04-29 18:50 57.54806 -2.45486 20148 ft 208 kts 161°
2026-04-29 18:51 57.53444 -2.44575 19621 ft 208 kts 156°
2026-04-29 18:51 57.52107 -2.43557 19111 ft 208 kts 154°
2026-04-29 18:51 57.50770 -2.42548 18580 ft 206 kts 155°
2026-04-29 18:51 57.49446 -2.41564 18000 ft 204 kts 155°
2026-04-29 18:52 57.48137 -2.40573 17427 ft 202 kts 154°
2026-04-29 18:52 57.46848 -2.39608 16874 ft 201 kts 155°
2026-04-29 18:52 57.45571 -2.38595 16321 ft 198 kts 146°
2026-04-29 18:52 57.44705 -2.36694 15774 ft 195 kts 112°
2026-04-29 18:53 57.44643 -2.34210 15242 ft 197 kts 81°
2026-04-29 18:53 57.45033 -2.31773 14720 ft 197 kts 76°
2026-04-29 18:53 57.45538 -2.29414 14198 ft 197 kts 70°
2026-04-29 18:53 57.46138 -2.27128 13628 ft 196 kts 69°
2026-04-29 18:54 57.46744 -2.24854 13060 ft 196 kts 68°
2026-04-29 18:54 57.47439 -2.22722 12508 ft 200 kts 51°
2026-04-29 18:54 57.48687 -2.21525 11952 ft 211 kts 14°
2026-04-29 18:54 57.50163 -2.21822 11407 ft 216 kts 345°
2026-04-29 18:55 57.51582 -2.22748 10887 ft 216 kts 341°
2026-04-29 18:55 57.52991 -2.23699 10364 ft 214 kts 341°
2026-04-29 18:55 57.54393 -2.24634 9796 ft 212 kts 341°
2026-04-29 18:55 57.55773 -2.25549 9232 ft 210 kts 341°
2026-04-29 18:56 57.56965 -2.27049 8656 ft 207 kts 307°
2026-04-29 18:56 57.57458 -2.29466 8102 ft 198 kts 270°
2026-04-29 18:56 57.57210 -2.31931 7565 ft 191 kts 248°
2026-04-29 18:56 57.56799 -2.34252 7046 ft 187 kts 248°
2026-04-29 18:57 57.56375 -2.36533 6502 ft 184 kts 247°
2026-04-29 18:57 57.55917 -2.38729 5987 ft 178 kts 236°
2026-04-29 18:57 57.55041 -2.40206 5675 ft 165 kts 210°
2026-04-29 18:57 57.54091 -2.41300 5491 ft 156 kts 209°
2026-04-29 18:58 57.53143 -2.42196 5352 ft 151 kts 189°
2026-04-29 18:58 57.52105 -2.42158 5230 ft 149 kts 178°
2026-04-29 18:58 57.51072 -2.42104 5100 ft 150 kts 178°
2026-04-29 18:58 57.50043 -2.41849 4975 ft 150 kts 162°
2026-04-29 18:59 57.49044 -2.41200 4857 ft 152 kts 160°
2026-04-29 18:59 57.48059 -2.40512 4721 ft 150 kts 160°
2026-04-29 18:59 57.47092 -2.39793 4678 ft 150 kts 158°
2026-04-29 18:59 57.46112 -2.39053 4630 ft 153 kts 159°
2026-04-29 19:00 57.45124 -2.38318 4584 ft 153 kts 159°
2026-04-29 19:00 57.44137 -2.37581 4536 ft 153 kts 159°
2026-04-29 19:00 57.43144 -2.36842 4489 ft 154 kts 159°
2026-04-29 19:00 57.42151 -2.36089 4441 ft 154 kts 159°
2026-04-29 19:01 57.41159 -2.35348 4398 ft 153 kts 159°
2026-04-29 19:01 57.40161 -2.34607 4293 ft 157 kts 159°
2026-04-29 19:01 57.39138 -2.33850 4093 ft 163 kts 159°
2026-04-29 19:01 57.38090 -2.33058 3881 ft 159 kts 159°
2026-04-29 19:02 57.37097 -2.32323 3664 ft 149 kts 160°
2026-04-29 19:02 57.36467 -2.31854 3540 ft 147 kts 160°
2026-04-29 19:02 57.35183 -2.30899 3270 ft 149 kts 160°
2026-04-29 19:02 57.34222 -2.30187 3073 ft 148 kts 160°
2026-04-29 19:03 57.33271 -2.29465 2871 ft 148 kts 160°
2026-04-29 19:03 57.32317 -2.28757 2667 ft 144 kts 160°
2026-04-29 19:03 57.31424 -2.28099 2481 ft 133 kts 160°
2026-04-29 19:03 57.30596 -2.27484 2304 ft 125 kts 160°
2026-04-29 19:04 57.29803 -2.26896 2147 ft 121 kts 161°
2026-04-29 19:04 57.29080 -2.26357 1993 ft 107 kts 160°
2026-04-29 19:04 57.28416 -2.25862 1845 ft 98 kts 160°
2026-04-29 19:04 57.27835 -2.25428 1712 ft 78 kts 160°
2026-04-29 19:05 57.27380 -2.25089 1610 ft 66 kts 161°
2026-04-29 19:05 57.26946 -2.24765 1525 ft 69 kts 161°
2026-04-29 19:05 57.26482 -2.24425 1440 ft 75 kts 159°
2026-04-29 19:05 57.25985 -2.24058 1338 ft 78 kts 160°
2026-04-29 19:06 57.25486 -2.23672 1178 ft 79 kts 159°
2026-04-29 19:06 57.24997 -2.23274 1053 ft 77 kts 160°
2026-04-29 19:06 57.24013 -2.22550 915 ft 77 kts 162°
2026-04-29 19:07 57.23520 -2.22197 851 ft 74 kts 161°
2026-04-29 19:07 57.23356 -2.22074 841 ft 77 kts 159°
2026-04-29 19:07 57.22511 -2.21452 647 ft 80 kts 161°
2026-04-29 19:07 57.21994 -2.21100 515 ft 78 kts 157°
2026-04-29 19:08 57.21501 -2.20737 382 ft 75 kts 159°
2026-04-29 19:08 57.21030 -2.20388 270 ft 72 kts 159°
2026-04-29 19:08 57.20663 -2.20121 242 ft 41 kts 159°
2026-04-29 19:08 57.20495 -2.20000 244 ft 6 kts 149°
2026-04-29 19:09 57.20516 -2.19943 243 ft 10 kts 33°
2026-04-29 19:09 57.20579 -2.19839 241 ft 14 kts 46°
2026-04-29 19:09 57.20564 -2.19751 241 ft 8 kts 146°
2026-04-29 19:09 57.20509 -2.19748 241 ft 8 kts 189°
2026-04-29 19:10 57.20446 -2.19761 241 ft 7 kts 184°
2026-04-29 19:10 57.20390 -2.19774 242 ft 10 kts 185°
2026-04-29 19:10 57.20351 -2.19670 241 ft 12 kts 98°
2026-04-29 19:10 57.20323 -2.19553 241 ft 9 kts 145°
2026-04-29 19:11 57.20303 -2.19451 241 ft 11 kts 71°
2026-04-29 19:11 57.20331 -2.19426 241 ft 5 kts 203°
2026-04-29 19:11 57.20322 -2.19424 241 ft 0 kts 171°